Regional Weather Roundup
Issued by NWS Upton, NY

Current Version | Previous Version | Text Only | Print | Product List | Glossary On
Versions: 1 2 3 4 5 6 7 8 9 10 11 12 13 14 15 16 17 18 19 20 21 22 23 24 25 26 27
000 ASUS41 KOKX 170409 RWROKX REGIONAL WEATHER ROUNDUP NATIONAL WEATHER SERVICE NEW YORK NY 1200 AM EDT THU AUG 17 2017 NOTE: "FAIR" INDICATES FEW OR NO CLOUDS BELOW 12,000 FEET WITH NO SIGNIFICANT WEATHER AND/OR OBSTRUCTIONS TO VISIBILITY. NYZ071-072-176-178-NJZ106-104-170500- NEW YORK CITY METRO AREA CITY SKY/WX TMP DP RH WIND PRES REMARKS Central Park CLEAR 76 62 62 MISG 30.04S Bronx Bot Gard N/A N/A N/A N/A CALM 30.04R LaGuardia APRT PTCLDY 78 67 68 NW9 30.00S Kennedy INTL CLEAR 75 72 90 N3 30.02R Breezy Point N/A 73 N/A N/A SW6 N/A Newark/Liberty CLEAR 75 62 64 NW6 30.01R Teterboro CLEAR 74 63 68 N6 30.01R $$ NYZ177-179-078>081-170500- LONG ISLAND NEW YORK CITY SKY/WX TMP DP RH WIND PRES REMARKS Jones Beach N/A 73 N/A N/A SW2 N/A Matinecock PT N/A 72 N/A N/A E5 N/A Farmingdale CLEAR 74 71 91 CALM 30.02R MacArthur/ISP PTCLDY 70 68 93 N5 30.02R Shirley MOCLDY 71 68 90 CALM 30.02R Mt Sinai Harb N/A N/A N/A N/A MISG N/A Westhampton PTCLDY 63 59 87 CALM 30.03R East Hampton MOCLDY 64 63 94 CALM 30.00S Montauk N/A 72 66 81 CALM 30.02R $$ NYZ052-065-067-170500- HUDSON VALLEY CITY SKY/WX TMP DP RH WIND PRES REMARKS White Plains CLEAR 73 58 59 N6 30.03R Larchmont Harb N/A 73 N/A N/A N6 N/A Croton On Huds N/A 70 N/A N/A NE1 N/A Newburgh PTCLDY 68 63 83 CALM 30.06R Montgomery CLEAR 64 61 90 CALM 30.04R Poughkeepsie CLEAR 64 61 90 CALM 30.03R Albany CLEAR 63 56 78 N7 30.06S $$ NJZ001-105-106-008-010-013-015-019>022-104-170500- NEW JERSEY CITY SKY/WX TMP DP RH WIND PRES REMARKS Newark/Liberty CLEAR 75 62 64 NW6 30.01R Teterboro CLEAR 74 63 68 N6 30.01R Caldwell CLEAR 68 65 90 CALM 30.04R Somerville CLEAR 67 66 97 CALM 30.01S Linden FAIR 73 62 68 NW5 30.02R Perth Amboy N/A 75 N/A N/A W5 N/A Sussex CLEAR 63 62 97 CALM 30.06R Andover N/A 64 62 93 CALM 30.06S Trenton MOCLDY 71 68 90 CALM 30.02S Millville CLEAR 71 70 96 W3 30.02S Atlantic City CLEAR 75 72 90 CALM 30.02S Wrightstown CLEAR 70 68 95 CALM 30.00S Toms River CLEAR 68 66 93 CALM 30.03R Belmar CLEAR 72 68 87 SW6 30.04R $$ PAZ047>061-062-071-170500- EASTERN PENNSYLVANIA CITY SKY/WX TMP DP RH WIND PRES REMARKS Philadelphia PTCLDY 76 69 79 CALM 30.02S Allentown PTCLDY 68 64 87 NW3 30.04S Scranton PTCLDY 65 59 81 E6 30.08S $$ CTZ002-004>006-009-010-012-RIZ004-006-007-MAZ004-011-015-170500- SOUTHERN NEW ENGLAND IN CT CITY SKY/WX TMP DP RH WIND PRES REMARKS Bradley INTL PTCLDY 67 57 70 N7 30.03R Hartford CLEAR 72 57 59 N6 30.01S Danbury CLEAR 66 63 90 SW3 30.05R Wtrbury/Oxford CLOUDY 68 59 73 N8 30.06R Norwalk Harbor N/A 73 N/A N/A N3 N/A Bridgeport MOCLDY 74 60 61 N5 30.02R Meriden MOCLDY 64 62 93 CALM 30.03R New Haven MOCLDY 73 60 63 N8 30.02R Chester NOT AVBL Groton CLEAR 68 62 81 N5 30.00R Wilimantic CLEAR 64 63 96 CALM 30.02S IN RI CITY SKY/WX TMP DP RH WIND PRES REMARKS Providence PTCLDY 70 57 63 N6 30.02R Block Island CLEAR 70 65 84 NW7 30.01R Westerly CLEAR 67 65 93 NE3 30.01R IN MA CITY SKY/WX TMP DP RH WIND PRES REMARKS Boston PTCLDY 71 45 39 NW8 30.02R Worcester CLEAR 67 51 56 N5 30.05S Westfield CLEAR 62 59 90 CALM 30.04R Provincetown MOCLDY 68 57 68 CALM 30.01S Nantucket CLOUDY 67 66 97 SE3 30.00S $$ ANZ330-335-338-340-345-350-353-355-170500- COASTAL MARINE OBSERVATIONS STATION/POSITION TIME SKY/WX TEMP WIND PRES VSBY WAVE AIR SEA DIR/SP/G HT/PER (UTC) (F) (DEG/KT/KT) (MB) (MI) (FT/S) NY HARB ENTRANCE 0350 76 76 250/ 12/ 14 1015.6 3/ 9 GREAT SOUTH BAY 0315 77 78 250/ 8/ 10 N/A 23 SSW MONTAUK P 0350 73 72 1016.3 4/10 15 E BARNEGAT LI 0330 76 N/A 3/ 9 HUDSON CANYON 0350 74 75 250/ 6/ 8 1015.9 3/ 9 KINGS POINT 0336 75 74 30/ 1/ 2 1016.1 EXECUTION ROCKS NOT AVBL WESTERN LI SOUND NOT AVBL CENTRAL LI SOUND NOT AVBL EASTERN LI SOUND NOT AVBL ROBBINS REEF 0342 290/ 5/ 6 1016.9 $$ >>>>>>>>>>>>>>>>>>>>>>>>>>>> KEY <<<<<<<<<<<<<<<<<<<<<<<<<<< > < > SKY/WX - Sky Condition/Present Weather < > TMP - Temperature in Fahrenheit < > DP - Dew Point in Fahrenheit < > RH - Relative Humidity in Percent < > WIND - Direction (from) and Speed in MPH < > PRES - Mean Sea Level Pressure (inches of Hg) < > WCI - Wind Chill Index < > VSB - VISIBILITY IN MILES < > HX - HEAT INDEX < > TC - TEMPERATURE IN CELSIUS < > VRB - VARIABLE WIND DIRECTION < > < >>>>>>>>>>>>>>>>>>>>>>>>>>>> KEY <<<<<<<<<<<<<<<<<<<<<<<<<<<

USA.gov is the U.S. government's official web portal to all federal, state and local government web resources and services.